Regional Weather Roundup
Issued by NWS

Home | Current Version | Previous Version | Graphics & Text | Print | Product List | Glossary On
Versions: 1 2 3 4 5 6 7 8 9 10 11 12 13 14 15 16 17 18 19 20 21 22 23 24 25 26 27 28 29 30 31 32 33 34 35 36 37 38 39 40 41 42 43 44 45 46 47 48 49 50
000
ASUS43 KDTX 061601
RWRMI
MICHIGAN HOURLY REGIONAL WEATHER ROUNDUP
NATIONAL WEATHER SERVICE DETROIT/PONTIAC MI
1200 PM EDT MON JUL 06 2015

NOTE: "FAIR" INDICATES FEW OR NO CLOUDS BELOW 12,000 FEET WITH NO
SIGNIFICANT WEATHER AND/OR OBSTRUCTION TO VISIBILITY.

MIZ047>049-052>055-059>063-066>070-074>076-081>083-061700-
SOUTHEAST LOWER MICHIGAN

CITY           SKY/WX    TMP DP  RH WIND       PRES   REMARKS
ADRIAN         FAIR      78  63  59 SW9       30.06F
ALMA           FAIR      80  66  62 S9        30.01F
ANN ARBOR      FAIR      79  64  60 VRB6      30.05F
BAD AXE        FAIR      79  59  49 S10       30.03F
CARO           FAIR      79  63  58 SW6       30.02F
DETROIT CITY   FAIR      79  60  52 SW3       30.06F
DETROIT        FAIR      79  62  56 S6        30.06F
FLINT          FAIR      81  62  52 S8        30.04F
GROSSE ILE     FAIR      75  68  78 SE5       30.06S
HILLSDALE      FAIR      78  63  59 SW5       30.07S
HOWELL         FAIR      79  61  52 S5        30.05S

CITY           SKY/WX    TMP DP  RH WIND       PRES   REMARKS
JACKSON        FAIR      79  64  60 SW6       30.05F
LAMBERTVILLE   FAIR      80  61  53 S3        30.07S
LANSING        FAIR      79  64  60 S13       30.03F
LAPEER         FAIR      79  58  48 SW5       30.05F
MASON          FAIR      76  62  61 S6        30.04F
MONROE         FAIR      78  62  58 CALM      30.06F
MT. CLEMENS    SUNNY     77  67  71 E9        30.05F
PONTIAC        PTSUNNY   79  60  52 S7        30.05F
PORT HOPE        N/A     71  63  75 E10       30.01F
PORT HURON     FAIR      77  63  61 S5        30.06F
TRI CITIES     FAIR      80  63  55 S12       30.01F
MIDLAND        FAIR      80  63  56 S12       29.99F
TROY           FAIR      80  56  43 S7        30.07F
SAGINAW HB     FAIR      79  61  53 S9        30.01F
$$
MIZ043>046-050>051-056>058-064>065-071>073-077>080-061700-
SOUTHWEST LOWER MICHIGAN

CITY           SKY/WX    TMP DP  RH WIND       PRES   REMARKS
BATTLE CREEK   FAIR      79  67  66 S13       30.04S
BENTON HARBOR  FAIR      81  66  60 S14       30.02R
BIG RAPIDS     PTSUNNY   78  64  62 SW10      30.01R
COLDWATER      FAIR      78  66  66 SW7       30.04F
FREMONT        CLOUDY    78  66  66 SW14      30.00R
HOLLAND        FAIR      81  66  60 SW18G24   30.03R
GRAND RAPIDS   PTSUNNY   79  65  62 S13       30.02R
IONIA          FAIR      80  64  58 S9        30.01S
KALAMAZOO      FAIR      80  67  64 SW15      30.03S
LUDINGTON      FAIR      78  66  65 S15G23    29.96F
MARSHALL       FAIR      79  66  65 S6        30.04S
MOUNT PLEASANT FAIR      80  64  58 S12       30.01R
MUSKEGON       PTSUNNY   77  66  68 S17       30.01R
SOUTH HAVEN    PTSUNNY   79  64  61 SW10G16   30.02R
$$
MIZ016>042-061700-
NORTHERN LOWER MICHIGAN

CITY           SKY/WX    TMP DP  RH WIND       PRES   REMARKS
ALPENA         FAIR      81  63  54 S7        29.98F
BEAVER ISLAND  FAIR      76  63  63 S13G18    29.92S
BELLAIRE       FAIR      80  63  56 SW10      29.95S
CADILLAC       PTSUNNY   78  65  63 S14       29.99S
CHARLEVOIX     FAIR      78  64  61 SW12G20   29.97S
FRANKFORT      FAIR      80  61  51 S10G17    29.94S
GAYLORD        FAIR      79  62  56 SW17      29.98S
GRAYLING       FAIR      79  64  59 S12       30.00S
HARBOR SPRINGS FAIR      76  64  67 S7        29.94S
HOUGHTON LAKE  FAIR      79  64  60 SW12      30.01R
MANISTEE       PTSUNNY   79  64  61 S10G17    29.96F
OSCODA         FAIR      80  63  56 S7        29.99F
PELLSTON       FAIR      79  64  60 SW12      29.94S
ROGERS CITY    FAIR      78  65  63 S10G18    29.97F
TRAVERSE CITY  CLOUDY    82  65  56 VRB7      29.93R HAZE
$$
MIZ007>008-015-061700-
EASTERN UPPER MICHIGAN

CITY           SKY/WX    TMP DP  RH WIND       PRES   REMARKS
KINROSS        FAIR      77  64  65 S8        29.93S
MACKINAC ISLAN FAIR      76  63  64 SW6       29.93S
NEWBERRY       FAIR      72  65  77 SW13G21   29.90S
S. S. MARIE    CLOUDY    76  64  66 S9        29.92R
$$
MIZ004>006-011>014-085-061700-
CENTRAL UPPER MICHIGAN

CITY           SKY/WX    TMP DP  RH WIND       PRES   REMARKS
MANISTIQUE     FAIR      63  58  83 S13G18    29.90S HAZE
ESCANABA       PTSUNNY   72  64  78 S7        29.88R
MENOMINEE      CLOUDY    79  66  65 S12       29.86S
SAWYER-GWINN   CLOUDY    72  64  78 SW7       29.89S
$$
MIZ001>003-009>011-084-061700-
WESTERN UPPER MICHIGAN

CITY           SKY/WX    TMP DP  RH WIND       PRES   REMARKS
IRON MOUNTAIN  CLOUDY    68  66  93 SE3       29.86F FOG
HOUGHTON       RAIN      61  59  93 NE6       29.85R FOG
COPPER HARBOR    N/A     55  54  96 NE6       29.85R
IRONWOOD       CLOUDY    63  63 100 N5        29.82R
$$

ABBREVIATIONS USED IN REMARKS
   TC - TEMPERATURE IN CELSIUS
  WCI - WIND CHILL INDEX
   HX - HEAT INDEX
  VSB - VISIBILITY




USA.gov is the U.S. government's official web portal to all federal, state and local government web resources and services.